Tracking 18780 objects as of 29-July-2017
HD Live streaming from Space Station
objects crossing your sky now
MAYAK may become the brightest orbital object in the night sky!
Where is MAYAK now?
How to spot MAYAK

NOAA 1

Track NOAA 1 now!
10-day predictions
NOAA 1 is classified as:


NORAD ID: 4793
Int'l Code: 1970-106A
Perigee: 1,429.9 km
Apogee: 1,480.1 km
Inclination: 101.8 °
Period: 114.8 minutes
Semi major axis: 7826 km
RCS: 3.071 m2 (large)
Launch date: December 11, 1970
Source: United States (US)
Launch site: AIR FORCE WESTERN TEST RANGE (AFWTR)
Your satellite tracking list
Your tracking list is empty





NASA's NSSDC Master Catalog

Two Line Element Set (TLE):
1  4793U 70106A   17209.82557934 -.00000039 +00000-0 +41687-4 0  9992
2  4793 101.7991 274.7107 0032066 176.8564 289.9764 12.53981628133899
Source of the keplerian elements: AFSPC